Find Starlink 11475

NORAD ID: 62226 Int'l Des: 2024-231 Owner: SPXS Country: US Constellation: starlink operational
LEOCIRCULAR

当前视图

正在加载3D地球...

About Starlink 11475

Starlink 11475 (NORAD 62226) is a starlink constellation satellite (v2 mini d2c) launched Dec 5, 2024 by SPXS of US. It operates in LEO, CIRCULAR orbit with a mass of 960.00 kg.

关于 Starlink 11475

正在加载描述...

即将过境

Passes for default location (London). Set your location on the main map for personalized predictions.

高度历史

Loading altitude history...

两行轨道根数

1 62226U 24231J 26171.38824304 .00271310 00000-0 21565-2 0 9994
2 62226 53.1570 314.8383 0000597 123.6780 236.4295 15.69879770 89545
Epoch: Jun 20, 2026 • Age: 46 hours

当前状态

高度 356.2 km
速度 7.70 km/s
星下点 17.09°N, 84.34°E
发射日期 Dec 5, 2024
运行时间 1.5 years
类型 internet

技术详情

分类 Payload
质量 960.00 kg
干质量 910.00 kg
总质量 960.00 kg
长度 0.30 m
直径 4.10 m
跨度 29.00 m
形状 Box + pan
制造商 SPXS
平台类型 Starlink V2MD
阶段状态 In Orbit
所有者/国家 SPXS/US

Most Searched